EW1423 Weather Reports


Display with metric or nautical units.
time (UTC)temp
F
wind
direction
speed
MPH
gust
MPH
rain 1hr
in
rain 24hr
in
rain mn
in
humidity
%
barometer
mb
20260901160803 76 245 0.0 5.0 0.00 0.00 0.00 52 1020.9
20260901160303 76 321 0.0 1.0 0.00 0.00 0.00 51 1020.9
20260901155803 75 281 0.0 1.0 0.00 0.00 0.00 51 1020.9
20260901154803 76 283 1.0 5.0 0.00 0.00 0.00 50 1020.8
20260901153803 78 267 0.0 0.0 0.00 0.00 0.00 49 1020.8
20260901153303 79 313 0.0 1.0 0.00 0.00 0.00 48 1020.8
20260901152803 80 356 0.0 0.0 0.00 0.00 0.00 47 1020.8
20260901152305 80 303 0.0 2.0 0.00 0.00 0.00 46 1020.8
20260901151802 80 325 0.0 2.0 0.00 0.00 0.00 47 1020.9
20260901151302 80 355 0.0 0.0 0.00 0.00 0.00 48 1020.9
20260901150802 80 355 0.0 0.0 0.00 0.00 0.00 47 1020.9
20260901150303 80 347 0.0 3.0 0.00 0.00 0.00 46 1020.9
20260901145803 80 291 1.0 5.0 0.00 0.00 0.00 47 1020.9
20260901145306 80 244 1.0 3.0 0.00 0.00 0.00 48 1020.9
20260901144303 78 348 0.0 5.0 0.00 0.00 0.00 48 1020.9
20260901143803 79 315 1.0 6.0 0.00 0.00 0.00 49 1020.9
20260901142803 77 302 0.0 2.0 0.00 0.00 0.00 50 1020.9
20260901142305 77 24 0.0 2.0 0.00 0.00 0.00 49 1021.1
20260901141802 78 294 0.0 5.0 0.00 0.00 0.00 49 1021.1
20260901141303 79 284 1.0 5.0 0.00 0.00 0.00 48 1021.1
20260901140303 79 21 1.0 3.0 0.00 0.00 0.00 48 1021.2
20260901135802 81 318 1.0 5.0 0.00 0.00 0.00 47 1021.2
20260901135305 81 33 0.0 3.0 0.00 0.00 0.00 50 1021.2
20260901134803 80 323 0.0 2.0 0.00 0.00 0.00 48 1021.2
20260901134303 78 32 0.0 8.0 0.00 0.00 0.00 47 1021.2
20260901133303 80 276 1.0 9.0 0.00 0.00 0.00 48 1021.2
20260901132802 80 27 2.0 7.0 0.00 0.00 0.00 47 1021.2
20260901132306 80 308 1.0 5.0 0.00 0.00 0.00 48 1021.2
20260901131802 79 318 1.0 3.0 0.00 0.00 0.00 49 1021.5
20260901131303 78 50 0.0 1.0 0.00 0.00 0.00 47 1021.5
20260901130803 77 334 0.0 3.0 0.00 0.00 0.00 51 1021.5
20260901130302 78 273 0.0 7.0 0.00 0.00 0.00 48 1021.5
20260901125802 79 358 0.0 5.0 0.00 0.00 0.00 48 1021.5
20260901125308 79 283 1.0 7.0 0.00 0.00 0.00 48 1021.5
20260901124803 79 279 1.0 6.0 0.00 0.00 0.00 48 1021.5
20260901124302 77 280 1.0 5.0 0.00 0.00 0.00 51 1021.4
20260901123802 75 296 2.0 5.0 0.00 0.00 0.00 50 1021.4
20260901123303 76 22 1.0 7.0 0.00 0.00 0.00 49 1021.4
20260901122306 78 292 0.0 3.0 0.00 0.00 0.00 50 1021.7
20260901121802 77 31 0.0 3.0 0.00 0.00 0.00 50 1021.7
20260901121302 77 63 1.0 5.0 0.00 0.00 0.00 50 1021.7
20260901120803 79 291 1.0 7.0 0.00 0.00 0.00 48 1021.7
20260901120303 80 300 1.0 5.0 0.00 0.00 0.00 46 1021.7
20260901115803 79 340 1.0 5.0 0.00 0.00 0.00 48 1021.7
20260901115306 79 31 0.0 7.0 0.00 0.00 0.00 48 1021.7
20260901114802 79 355 0.0 6.0 0.00 0.00 0.00 48 1021.7
20260901114302 79 5 0.0 6.0 0.00 0.00 0.00 49 1021.3
20260901113803 79 4 0.0 1.0 0.00 0.00 0.00 51 1021.3
20260901113303 77 272 0.0 0.0 0.00 0.00 0.00 55 1022.2
20260901112306 77 272 0.0 0.0 0.00 0.00 0.00 55 1022.2
20260901111803 77 272 0.0 0.0 0.00 0.00 0.00 55 1022.2
20260901111303 77 272 0.0 0.0 0.00 0.00 0.00 55 1022.2
20260901110804 77 272 0.0 0.0 0.00 0.00 0.00 55 1022.2
20260901105803 77 272 0.0 0.0 0.00 0.00 0.00 55 1022.2
20260901105305 77 272 0.0 0.0 0.00 0.00 0.00 55 1022.2
20260901104803 77 272 0.0 0.0 0.00 0.00 0.00 55 1022.2
20260901104303 77 272 0.0 0.0 0.00 0.00 0.00 55 1022.2
20260901103803 77 272 0.0 2.0 0.00 0.00 0.00 55 1022.2
20260901103303 77 310 0.0 1.0 0.00 0.00 0.00 55 1022.2
20260901102306 75 301 1.0 3.0 0.00 0.00 0.00 57 1022.2
20260901101803 74 252 1.0 3.0 0.00 0.00 0.00 58 1021.8
20260901100303 77 318 1.0 5.0 0.00 0.00 0.00 54 1021.9
20260901095803 76 274 0.0 2.0 0.00 0.00 0.00 58 1021.8
20260901095306 73 315 0.0 0.0 0.00 0.00 0.00 60 1021.9
20260901094804 72 328 1.0 5.0 0.00 0.00 0.00 61 1022.3
20260901093804 73 345 0.0 2.0 0.00 0.00 0.00 61 1022.4
20260901093304 73 268 0.0 3.0 0.00 0.00 0.00 61 1022.4
20260901092804 74 301 1.0 5.0 0.00 0.00 0.00 60 1022.4
20260901092305 74 266 1.0 5.0 0.00 0.00 0.00 61 1022.4
20260901091304 72 271 0.0 3.0 0.00 0.00 0.00 64 1022.5
20260901090803 71 284 1.0 5.0 0.00 0.00 0.00 69 1022.5
20260901090304 70 246 0.0 0.0 0.00 0.00 0.00 67 1022.4
20260901085306 70 273 0.0 0.0 0.00 0.00 0.00 69 1022.4
20260901084804 70 46 0.0 3.0 0.00 0.00 0.00 70 1022.4
20260901084303 70 309 1.0 2.0 0.00 0.00 0.00 70 1022.4
20260901083803 70 309 0.0 0.0 0.00 0.00 0.00 72 1022.4
20260901083304 69 53 0.0 0.0 0.00 0.00 0.00 74 1022.4
20260901082804 69 53 0.0 0.0 0.00 0.00 0.00 76 1022.4
20260901082306 69 53 0.0 2.0 0.00 0.00 0.00 75 1022.4
20260901081304 68 95 0.0 0.0 0.00 0.00 0.00 75 1022.3
20260901080803 68 158 0.0 0.0 0.00 0.00 0.00 76 1022.4
20260901080304 68 158 0.0 0.0 0.00 0.00 0.00 75 1022.4
20260901075805 67 158 0.0 1.0 0.00 0.00 0.00 77 1022.4
20260901075307 67 134 0.0 0.0 0.00 0.00 0.00 78 1022.4
20260901074804 67 134 0.0 0.0 0.00 0.00 0.00 77 1022.3
20260901074303 67 134 0.0 0.0 0.00 0.00 0.00 80 1022.3
20260901072803 65 134 0.0 0.0 0.00 0.00 0.00 79 1022.3
20260901072309 65 134 0.0 0.0 0.00 0.00 0.00 82 1022.3
20260901071804 65 134 0.0 0.0 0.00 0.00 0.00 83 1022.2
20260901071305 65 134 0.0 0.0 0.00 0.00 0.00 82 1022.2
20260901070303 64 134 0.0 0.0 0.00 0.00 0.00 84 1022.1
20260901065803 64 134 0.0 0.0 0.00 0.00 0.00 84 1022.1
20260901065305 63 134 0.0 0.0 0.00 0.00 0.00 85 1022.1
20260901064803 63 134 0.0 0.0 0.00 0.00 0.00 86 1022.1
20260901064304 63 134 0.0 0.0 0.00 0.00 0.00 86 1022.1
20260901063804 62 134 0.0 0.0 0.00 0.00 0.00 87 1022.1
20260901063303 62 134 0.0 0.0 0.00 0.00 0.00 87 1022.1
20260901062803 62 134 0.0 0.0 0.00 0.00 0.00 88 1022.1
20260901062309 61 134 0.0 0.0 0.00 0.00 0.00 91 1022.1
20260901061803 60 134 0.0 0.0 0.00 0.00 0.00 93 1022.1
20260901061304 59 134 0.0 0.0 0.00 0.00 0.00 93 1022.1
20260901060804 59 134 0.0 0.0 0.00 0.00 0.00 94 1022.1
20260901060303 58 134 0.0 0.0 0.00 0.00 0.00 95 1022.1
20260901055804 58 134 0.0 0.0 0.00 0.00 0.00 96 1022.1
20260901055306 57 134 0.0 0.0 0.00 0.00 0.00 97 1022.1
20260901054804 57 134 0.0 0.0 0.00 0.00 0.00 96 1022.1
20260901054303 57 134 0.0 0.0 0.00 0.00 0.00 96 1022.1
20260901053803 57 134 0.0 0.0 0.00 0.00 0.00 96 1022.1
20260901053303 57 134 0.0 0.0 0.00 0.00 0.00 97 1022.1
20260901052307 57 134 0.0 0.0 0.00 0.00 0.00 97 1022.1
20260901051804 56 134 0.0 0.0 0.00 0.00 0.00 98 1022.1
20260901051303 56 134 0.0 0.0 0.00 0.00 0.00 98 1022.1
20260901050804 56 136 0.0 0.0 0.00 0.00 0.00 98 1021.8
20260901050303 55 136 0.0 0.0 0.00 0.00 0.00 99 1021.8
20260901045306 55 136 0.0 0.0 0.00 0.00 0.00 99 1021.8
20260901044803 55 136 0.0 0.0 0.00 0.00 0.00 99 1021.8
20260901043804 55 136 0.0 0.0 0.00 0.00 0.00 100 1021.8
20260901043304 55 136 0.0 0.0 0.00 0.00 0.00 100 1021.8
20260901042804 55 136 0.0 0.0 0.00 0.00 0.00 99 1021.8
20260901042306 55 136 0.0 0.0 0.00 0.00 0.00 99 1021.8
20260901041804 55 136 0.0 0.0 0.00 0.00 0.00 99 1021.8
20260901040804 55 136 0.0 0.0 0.00 0.00 0.00 99 1021.8
20260901040303 55 136 0.0 0.0 0.00 0.00 0.00 99 1021.8
20260901035803 55 136 0.0 0.0 0.00 0.00 0.00 99 1021.8
20260901035305 55 136 0.0 0.0 0.00 0.00 0.00 98 1021.8
20260901034804 55 136 0.0 0.0 0.00 0.00 0.00 99 1021.8
20260901033804 55 136 0.0 0.0 0.00 0.00 0.00 98 1021.7
20260901033304 55 136 0.0 0.0 0.00 0.00 0.00 98 1021.7
20260901032306 56 136 0.0 0.0 0.00 0.00 0.00 98 1021.7
20260901031804 56 136 0.0 0.0 0.00 0.00 0.00 97 1021.7
20260901031304 56 136 0.0 0.0 0.00 0.00 0.00 97 1021.7
20260901030803 56 136 0.0 0.0 0.00 0.00 0.00 96 1021.7
20260901030304 56 136 0.0 0.0 0.00 0.00 0.00 96 1021.6
20260901025803 56 136 0.0 0.0 0.00 0.00 0.00 96 1021.6
20260901025306 57 136 0.0 0.0 0.00 0.00 0.00 96 1021.8
20260901024803 57 136 0.0 0.0 0.00 0.00 0.00 96 1021.8
20260901024303 57 136 0.0 0.0 0.00 0.00 0.00 96 1021.7
20260901023304 56 136 0.0 0.0 0.00 0.00 0.00 96 1021.7
20260901022803 56 136 0.0 0.0 0.00 0.00 0.00 96 1021.7
20260901022305 56 136 0.0 0.0 0.00 0.00 0.00 96 1021.7
20260901021803 56 136 0.0 0.0 0.00 0.00 0.00 96 1021.6
20260901021304 57 136 0.0 0.0 0.00 0.00 0.00 95 1021.5
20260901020804 57 136 0.0 0.0 0.00 0.00 0.00 95 1021.5
20260901015803 57 136 0.0 0.0 0.00 0.01 0.00 95 1021.3
20260901015305 57 136 0.0 0.0 0.00 0.01 0.00 96 1021.3
20260901014804 57 136 0.0 0.0 0.00 0.01 0.00 96 1021.3
20260901014304 56 136 0.0 0.0 0.00 0.01 0.00 96 1021.3
20260901013804 56 136 0.0 0.0 0.00 0.01 0.00 96 1021.3
20260901012804 57 136 0.0 0.0 0.00 0.01 0.00 95 1021.3
20260901012306 57 136 0.0 0.0 0.00 0.01 0.00 95 1021.3
20260901011804 57 136 0.0 0.0 0.00 0.01 0.00 95 1021.3
20260901011304 57 136 0.0 0.0 0.00 0.01 0.00 94 1021.3
20260901010804 57 136 0.0 0.0 0.00 0.02 0.00 95 1021.3
20260901010303 56 101 0.0 0.0 0.00 0.02 0.00 96 1021.3
20260901005804 56 66 0.0 0.0 0.00 0.02 0.00 96 1021.3
20260901005306 56 66 0.0 0.0 0.00 0.02 0.00 95 1021.3
20260901004304 57 66 0.0 0.0 0.00 0.02 0.00 95 1021.1
20260901003804 57 66 0.0 0.0 0.00 0.03 0.00 95 1021.1
20260901002305 57 66 0.0 0.0 0.00 0.07 0.00 94 1021.1
20260901001304 58 66 0.0 0.0 0.00 0.19 0.00 93 1021.1
20260901000803 58 66 0.0 0.0 0.00 0.20 0.00 93 1021.1
20260901000304 58 66 0.0 0.0 0.00 0.20 0.00 93 1021.1
20260831235804 57 66 0.0 0.0 0.00 0.20 0.00 93 1021.0
20260831235306 57 66 0.0 0.0 0.00 0.20 0.00 94 1021.0
20260831234804 57 66 0.0 0.0 0.00 0.20 0.00 94 1021.0
20260831234304 57 66 0.0 0.0 0.00 0.20 0.00 94 1021.1
20260831233304 57 66 0.0 0.0 0.00 0.20 0.00 93 1021.1
20260831232803 58 66 0.0 0.0 0.00 0.20 0.00 93 1021.1
20260831232305 58 66 0.0 0.0 0.00 0.20 0.00 93 1021.1
20260831231803 58 66 0.0 0.0 0.00 0.20 0.00 93 1021.1
20260831231304 58 66 0.0 0.0 0.00 0.20 0.00 93 1021.1
20260831230804 58 66 0.0 0.0 0.00 0.20 0.00 93 1021.1
20260831230303 59 66 0.0 0.0 0.00 0.20 0.00 92 1021.1
20260831225306 58 66 0.0 0.0 0.00 0.20 0.00 91 1021.1
20260831224803 59 66 0.0 0.0 0.00 0.20 0.00 91 1021.1
20260831224304 59 66 0.0 0.0 0.00 0.20 0.00 90 1021.1
20260831223804 59 66 0.0 0.0 0.00 0.20 0.00 91 1020.8
20260831222803 59 66 0.0 0.0 0.00 0.20 0.00 90 1020.8
20260831222306 59 66 0.0 0.0 0.00 0.20 0.00 90 1020.8
20260831221804 59 66 0.0 0.0 0.00 0.20 0.00 90 1020.8
20260831221304 59 66 0.0 0.0 0.00 0.20 0.00 89 1020.8
20260831220810 60 66 0.0 0.0 0.00 0.20 0.00 88 1020.8
20260831220304 60 66 0.0 0.0 0.00 0.20 0.00 88 1020.8
20260831215804 60 66 0.0 0.0 0.00 0.20 0.20 88 1020.8
20260831215306 60 66 0.0 0.0 0.00 0.20 0.20 87 1020.8
20260831214804 60 66 0.0 0.0 0.00 0.20 0.20 88 1020.5
20260831214304 60 66 0.0 0.0 0.00 0.20 0.20 89 1020.5
20260831213804 60 66 0.0 0.0 0.00 0.20 0.20 89 1020.5
20260831212306 60 66 0.0 0.0 0.00 0.20 0.20 88 1020.5
20260831211804 60 66 0.0 0.0 0.00 0.20 0.20 88 1020.5
20260831211304 60 66 0.0 0.0 0.00 0.20 0.20 88 1020.5
20260831210804 60 66 0.0 0.0 0.00 0.20 0.20 88 1020.5
20260831210303 60 66 0.0 0.0 0.00 0.20 0.20 88 1020.5
20260831205305 60 66 0.0 0.0 0.00 0.20 0.20 88 1020.4
20260831204804 60 66 0.0 0.0 0.00 0.20 0.20 87 1019.9
20260831204303 60 66 0.0 0.0 0.00 0.20 0.20 87 1019.9
20260831203803 60 66 0.0 0.0 0.00 0.20 0.20 86 1019.9
20260831203303 61 66 0.0 0.0 0.00 0.20 0.20 86 1019.9
20260831202803 61 66 0.0 0.0 0.00 0.20 0.20 85 1019.9
20260831202306 62 66 0.0 0.0 0.00 0.20 0.20 84 1019.9
20260831201804 62 66 0.0 0.0 0.00 0.20 0.20 82 1019.9
20260831201303 63 66 0.0 0.0 0.00 0.20 0.20 80 1019.9
20260831200803 63 66 0.0 0.0 0.00 0.20 0.20 78 1019.9
20260831195803 64 66 0.0 0.0 0.00 0.20 0.20 77 1019.9
20260831195306 64 66 0.0 0.0 0.00 0.20 0.20 76 1019.8
20260831194803 65 306 0.0 0.0 0.00 0.20 0.20 75 1019.8
20260831194303 65 226 0.0 0.0 0.00 0.20 0.20 75 1019.8
20260831193803 65 226 0.0 0.0 0.00 0.20 0.20 75 1019.8
20260831193304 65 226 0.0 0.0 0.00 0.20 0.20 74 1019.7
20260831192803 66 226 0.0 1.0 0.00 0.20 0.20 73 1019.7
20260831192305 66 177 1.0 5.0 0.00 0.20 0.20 72 1019.7
20260831191304 66 269 0.0 5.0 0.00 0.20 0.20 73 1019.7
20260831190804 67 320 2.0 9.0 0.00 0.20 0.20 72 1019.7
20260831190304 67 268 1.0 7.0 0.00 0.20 0.20 72 1019.7
20260831185306 67 257 2.0 9.0 0.00 0.20 0.20 73 1019.5
20260831184804 67 221 0.0 2.0 0.00 0.20 0.20 73 1018.5
20260831183804 67 327 0.0 5.0 0.00 0.20 0.20 73 1018.5
20260831183303 67 270 1.0 5.0 0.00 0.20 0.20 73 1018.5
20260831182804 67 0 0.0 3.0 0.00 0.20 0.20 73 1018.5
20260831182305 67 255 1.0 7.0 0.00 0.20 0.20 74 1018.5
20260831181804 68 313 1.0 3.0 0.00 0.20 0.20 74 1018.5
20260831180804 68 269 0.0 1.0 0.00 0.20 0.20 73 1018.5
20260831180304 67 223 0.0 5.0 0.00 0.20 0.20 74 1018.5
20260831175805 67 296 0.0 0.0 0.00 0.20 0.20 77 1018.5
20260831175306 68 296 0.0 0.0 0.00 0.20 0.20 76 1018.5
20260831174804 68 305 0.0 5.0 0.00 0.20 0.20 76 1018.7
20260831174303 68 257 1.0 6.0 0.00 0.20 0.20 74 1018.7
20260831173803 68 292 1.0 6.0 0.00 0.20 0.20 73 1018.7
20260831173304 68 294 1.0 6.0 0.00 0.20 0.20 74 1017.9
20260831172804 68 301 0.0 1.0 0.00 0.20 0.20 74 1017.9
20260831172306 69 280 0.0 2.0 0.00 0.20 0.20 73 1017.9
20260831171804 69 271 0.0 1.0 0.00 0.20 0.20 71 1017.9
20260831171304 69 284 0.0 2.0 0.00 0.20 0.20 71 1017.9
20260831170803 69 220 0.0 0.0 0.00 0.20 0.20 72 1017.9
20260831165804 69 281 0.0 0.0 0.00 0.20 0.20 71 1017.7
20260831165305 69 309 0.0 2.0 0.00 0.20 0.20 71 1017.7
20260831164803 69 258 0.0 2.0 0.00 0.20 0.20 71 1017.4
20260831164304 69 303 1.0 5.0 0.00 0.20 0.20 70 1017.4
20260831163803 70 295 0.0 6.0 0.00 0.20 0.20 69 1017.4
20260831163304 70 273 1.0 8.0 0.00 0.20 0.20 67 1017.4
20260831162804 71 333 2.0 9.0 0.00 0.20 0.20 64 1017.4
20260831161804 74 301 0.0 3.0 0.00 0.20 0.20 59 1017.4